When you browse on this site, cookies collect data to enhance your experience and personalize the content and advertising you see.
Visit our Privacy Policy to learn more. By continuing to use the site, you agree to this use of cookies and data.
  • en Suisse
  • Liste des pays
  • À 7 jours
  • Température de l'eau
  • Carte satellitaire
  • Carte météo
  • Widgets météo
  • user-avatar
    Se connecter

    Météo par heure à Asadabad

    Ce jour, 25 Juin, Mardi

    Heure Température Précipitation Vent Pression Humidité
    00:00 +23°C° 0.3 mm 2 m/s 657 mmHg 59%
    01:00 +23°C° 0.3 mm 2 m/s 657 mmHg 58%
    02:00 +21°C° 0.3 mm 2 m/s 657 mmHg 57%
    03:00 +21°C° 0.1 mm 2 m/s 657 mmHg 56%
    04:00 +21°C° 0.1 mm 2 m/s 656 mmHg 55%
    05:00 +20°C° 0 mm 2 m/s 656 mmHg 52%
    06:00 +23°C° 0 mm 2 m/s 657 mmHg 46%
    07:00 +25°C° 0 mm 1 m/s 658 mmHg 39%
    08:00 +27°C° 0 mm 1 m/s 658 mmHg 33%
    09:00 +28°C° 0 mm 1 m/s 658 mmHg 30%
    10:00 +29°C° 0 mm 1 m/s 658 mmHg 28%
    11:00 +30°C° 0 mm 2 m/s 658 mmHg 27%
    12:00 +31°C° 0 mm 2 m/s 658 mmHg 25%
    13:00 +32°C° 0 mm 2 m/s 658 mmHg 24%
    14:00 +32°C° 0 mm 2 m/s 658 mmHg 22%
    15:00 +34°C° 0 mm 2 m/s 658 mmHg 22%
    16:00 +34°C° 0 mm 2 m/s 658 mmHg 21%
    17:00 +33°C° 0 mm 1 m/s 658 mmHg 21%
    18:00 +31°C° 0 mm 2 m/s 658 mmHg 27%
    19:00 +29°C° 0 mm 2 m/s 657 mmHg 33%
    20:00 +27°C° 0 mm 2 m/s 657 mmHg 39%
    21:00 +26°C° 0 mm 2 m/s 657 mmHg 39%
    22:00 +26°C° 0 mm 2 m/s 657 mmHg 39%
    23:00 +25°C° 0 mm 2 m/s 657 mmHg 39%

    Demain, 26 Juin, Mercredi

    Heure Température Précipitation Vent Pression Humidité
    00:00 +25°C° 0 mm 2 m/s 656 mmHg 38%
    01:00 +24°C° 0 mm 2 m/s 656 mmHg 36%
    02:00 +24°C° 0 mm 3 m/s 656 mmHg 34%
    03:00 +24°C° 0 mm 3 m/s 656 mmHg 34%
    04:00 +22°C° 0 mm 3 m/s 655 mmHg 34%
    05:00 +22°C° 0 mm 3 m/s 655 mmHg 33%
    06:00 +25°C° 0 mm 2 m/s 656 mmHg 30%
    07:00 +27°C° 0 mm 1 m/s 656 mmHg 27%
    08:00 +28°C° 0 mm 1 m/s 657 mmHg 25%
    09:00 +29°C° 0 mm 1 m/s 657 mmHg 23%
    10:00 +31°C° 0 mm 1 m/s 657 mmHg 22%
    11:00 +32°C° 0 mm 2 m/s 657 mmHg 21%
    12:00 +32°C° 0 mm 2 m/s 657 mmHg 20%
    13:00 +34°C° 0 mm 2 m/s 657 mmHg 19%
    14:00 +35°C° 0 mm 2 m/s 657 mmHg 18%
    15:00 +35°C° 0 mm 2 m/s 656 mmHg 18%
    16:00 +35°C° 0 mm 2 m/s 656 mmHg 18%
    17:00 +35°C° 0 mm 2 m/s 655 mmHg 18%
    18:00 +32°C° 0 mm 1 m/s 655 mmHg 23%
    19:00 +30°C° 0 mm 1 m/s 655 mmHg 28%
    20:00 +27°C° 0 mm 0 m/s 654 mmHg 34%
    21:00 +28°C° 0 mm 1 m/s 654 mmHg 33%
    22:00 +27°C° 0 mm 1 m/s 654 mmHg 33%
    23:00 +27°C° 0 mm 1 m/s 654 mmHg 32%

    Après-demain, 27 Juin, Jeudi

    Heure Température Précipitation Vent Pression Humidité
    00:00 +26°C° 0 mm 2 m/s 654 mmHg 31%
    01:00 +26°C° 0 mm 2 m/s 654 mmHg 31%
    02:00 +25°C° 0 mm 2 m/s 653 mmHg 30%
    03:00 +25°C° 0 mm 2 m/s 653 mmHg 30%
    04:00 +25°C° 0 mm 3 m/s 653 mmHg 31%
    05:00 +24°C° 0 mm 3 m/s 653 mmHg 31%
    06:00 +26°C° 0 mm 2 m/s 653 mmHg 28%
    07:00 +28°C° 0 mm 2 m/s 654 mmHg 26%
    08:00 +30°C° 0 mm 1 m/s 655 mmHg 23%
    09:00 +31°C° 0 mm 2 m/s 655 mmHg 21%
    10:00 +32°C° 0 mm 2 m/s 655 mmHg 20%
    11:00 +34°C° 0 mm 2 m/s 655 mmHg 18%
    12:00 +35°C° 0 mm 2 m/s 655 mmHg 17%
    13:00 +36°C° 0 mm 3 m/s 655 mmHg 17%
    14:00 +36°C° 0 mm 3 m/s 655 mmHg 16%
    15:00 +36°C° 0 mm 3 m/s 654 mmHg 18%
    16:00 +35°C° 0 mm 3 m/s 654 mmHg 20%
    17:00 +34°C° 0 mm 4 m/s 654 mmHg 22%
    18:00 +31°C° 0 mm 3 m/s 653 mmHg 28%
    19:00 +30°C° 0 mm 3 m/s 653 mmHg 33%
    20:00 +28°C° 0 mm 2 m/s 653 mmHg 38%
    21:00 +27°C° 0 mm 2 m/s 653 mmHg 37%
    22:00 +27°C° 0 mm 3 m/s 653 mmHg 36%
    23:00 +27°C° 0 mm 3 m/s 653 mmHg 35%

    28 Juin, Vendredi

    Heure Température Précipitation Vent Pression Humidité
    00:00 +26°C° 0 mm 3 m/s 653 mmHg 34%
    01:00 +26°C° 0 mm 3 m/s 653 mmHg 33%
    02:00 +25°C° 0 mm 3 m/s 652 mmHg 32%
    03:00 +25°C° 0 mm 3 m/s 652 mmHg 31%
    04:00 +25°C° 0 mm 3 m/s 652 mmHg 31%
    05:00 +24°C° 0 mm 3 m/s 652 mmHg 31%
    06:00 +26°C° 0 mm 2 m/s 653 mmHg 28%
    07:00 +28°C° 0 mm 2 m/s 653 mmHg 26%
    08:00 +30°C° 0 mm 1 m/s 654 mmHg 23%
    09:00 +31°C° 0 mm 1 m/s 654 mmHg 21%
    10:00 +34°C° 0 mm 2 m/s 654 mmHg 20%
    11:00 +35°C° 0 mm 2 m/s 655 mmHg 18%
    12:00 +35°C° 0 mm 2 m/s 654 mmHg 18%
    13:00 +36°C° 0 mm 2 m/s 654 mmHg 17%
    14:00 +37°C° 0 mm 3 m/s 654 mmHg 16%
    15:00 +37°C° 0 mm 3 m/s 654 mmHg 16%
    16:00 +37°C° 0 mm 2 m/s 654 mmHg 16%
    17:00 +37°C° 0 mm 2 m/s 653 mmHg 16%
    18:00 +34°C° 0 mm 2 m/s 653 mmHg 21%
    19:00 +31°C° 0 mm 2 m/s 653 mmHg 27%
    20:00 +29°C° 0 mm 2 m/s 652 mmHg 32%
    21:00 +29°C° 0 mm 2 m/s 653 mmHg 33%
    22:00 +28°C° 0 mm 2 m/s 653 mmHg 33%
    23:00 +28°C° 0 mm 2 m/s 653 mmHg 33%

    29 Juin, Samedi

    Heure Température Précipitation Vent Pression Humidité
    00:00 +27°C° 0 mm 2 m/s 653 mmHg 32%
    01:00 +27°C° 0 mm 2 m/s 653 mmHg 31%
    02:00 +27°C° 0 mm 3 m/s 652 mmHg 30%
    03:00 +26°C° 0 mm 3 m/s 652 mmHg 30%
    04:00 +26°C° 0 mm 3 m/s 652 mmHg 29%
    05:00 +26°C° 0 mm 3 m/s 652 mmHg 29%
    06:00 +28°C° 0 mm 2 m/s 653 mmHg 26%
    07:00 +30°C° 0 mm 2 m/s 653 mmHg 23%
    08:00 +32°C° 0 mm 1 m/s 654 mmHg 21%
    09:00 +34°C° 0 mm 2 m/s 654 mmHg 19%
    10:00 +35°C° 0 mm 2 m/s 654 mmHg 18%
    11:00 +36°C° 0 mm 2 m/s 655 mmHg 16%
    12:00 +37°C° 0 mm 2 m/s 654 mmHg 15%
    13:00 +38°C° 0 mm 3 m/s 654 mmHg 15%
    14:00 +38°C° 0 mm 3 m/s 654 mmHg 14%
    15:00 +38°C° 0 mm 3 m/s 654 mmHg 15%
    16:00 +37°C° 0 mm 4 m/s 654 mmHg 17%
    17:00 +37°C° 0 mm 4 m/s 654 mmHg 18%
    18:00 +35°C° 0 mm 3 m/s 654 mmHg 23%
    19:00 +32°C° 0 mm 2 m/s 654 mmHg 28%
    20:00 +30°C° 0 mm 2 m/s 653 mmHg 33%
    21:00 +30°C° 0 mm 2 m/s 653 mmHg 33%
    22:00 +29°C° 0 mm 3 m/s 653 mmHg 33%
    23:00 +29°C° 0 mm 4 m/s 653 mmHg 33%

    30 Juin, Dimanche

    Heure Température Précipitation Vent Pression Humidité
    00:00 +28°C° 0 mm 3 m/s 653 mmHg 33%
    01:00 +28°C° 0 mm 3 m/s 653 mmHg 33%
    02:00 +27°C° 0 mm 3 m/s 652 mmHg 33%
    03:00 +27°C° 0 mm 3 m/s 652 mmHg 32%
    04:00 +27°C° 0 mm 3 m/s 652 mmHg 32%
    05:00 +26°C° 0 mm 3 m/s 652 mmHg 32%
    06:00 +28°C° 0 mm 2 m/s 653 mmHg 29%
    07:00 +30°C° 0 mm 2 m/s 653 mmHg 26%
    08:00 +32°C° 0 mm 1 m/s 654 mmHg 23%
    09:00 +34°C° 0 mm 1 m/s 654 mmHg 21%
    10:00 +35°C° 0 mm 1 m/s 654 mmHg 19%
    11:00 +37°C° 0 mm 2 m/s 654 mmHg 17%
    12:00 +38°C° 0 mm 2 m/s 654 mmHg 17%
    13:00 +38°C° 0 mm 2 m/s 654 mmHg 16%
    14:00 +39°C° 0 mm 2 m/s 654 mmHg 16%
    15:00 +39°C° 0 mm 2 m/s 654 mmHg 16%
    16:00 +39°C° 0 mm 2 m/s 653 mmHg 17%
    17:00 +38°C° 0 mm 2 m/s 653 mmHg 18%
    18:00 +36°C° 0 mm 3 m/s 653 mmHg 23%
    19:00 +34°C° 0 mm 3 m/s 652 mmHg 27%
    20:00 +31°C° 0 mm 3 m/s 652 mmHg 32%
    21:00 +30°C° 0 mm 3 m/s 652 mmHg 31%
    22:00 +30°C° 0 mm 3 m/s 652 mmHg 30%
    23:00 +29°C° 0 mm 3 m/s 653 mmHg 30%
    Voir plus